This is the latest recevied weather packets stored in our database for station/object K7NDG. If no packets are shown the sender has not sent any weather packets the latest 10 day(s).
| Time | Temp. | Humidity | Pressure | Rain* | Wind** | Luminosity | Snow |
|---|---|---|---|---|---|---|---|
| 1777417626 | 13.33° C | 63% | 1024.5 hPa | 0 mm | - | 218 W/m² | - |
| 1777417321 | 13.33° C | 63% | 1024.3 hPa | 0 mm | - | 209 W/m² | - |
| 1777417018 | 13.33° C | 64% | 1024.5 hPa | 0 mm | - | 192 W/m² | - |
| 1777416713 | 13.33° C | 65% | 1024.4 hPa | 0 mm | - | 192 W/m² | - |
| 1777416409 | 13.33° C | 64% | 1024.4 hPa | 0 mm | - | 198 W/m² | - |
| 1777416104 | 13.33° C | 67% | 1024.5 hPa | 0 mm | - | 179 W/m² | - |
| 1777415798 | 13.33° C | 66% | 1024.6 hPa | 0 mm | - | 166 W/m² | - |
| 1777415495 | 12.78° C | 67% | 1024.4 hPa | 0 mm | - | 155 W/m² | - |
| 1777415191 | 12.78° C | 66% | 1024.6 hPa | 0 mm | - | 127 W/m² | - |
| 1777414886 | 12.78° C | 69% | 1024.4 hPa | 0 mm | - | 117 W/m² | - |
| 1777414585 | 12.78° C | 69% | 1024.5 hPa | 0 mm | - | 124 W/m² | - |
| 1777414280 | 12.78° C | 69% | 1024.5 hPa | 0 mm | - | 116 W/m² | - |
| 1777413975 | 12.78° C | 71% | 1024.6 hPa | 0 mm | - | 108 W/m² | - |
| 1777413671 | 12.78° C | 71% | 1024.7 hPa | 0 mm | - | 127 W/m² | - |
| 1777413367 | 12.22° C | 71% | 1024.7 hPa | 0 mm | - | 159 W/m² | - |
| 1777413064 | 12.78° C | 70% | 1024.5 hPa | 0 mm | - | 149 W/m² | - |
| 1777412758 | 12.78° C | 70% | 1024.5 hPa | 0 mm | - | 126 W/m² | - |
| 1777412456 | 12.78° C | 69% | 1024.5 hPa | 0 mm | - | 126 W/m² | - |
| 1777412155 | 12.78° C | 70% | 1024.5 hPa | 0 mm | - | 161 W/m² | - |
| 1777411850 | 12.78° C | 70% | 1024.5 hPa | 0 mm | - | 201 W/m² | - |
| 1777411549 | 12.78° C | 71% | 1024.3 hPa | 0 mm | - | 180 W/m² | - |
| 1777411244 | 12.22° C | 71% | 1024.6 hPa | 0 mm | - | 164 W/m² | - |
| 1777410939 | 12.22° C | 70% | 1024.5 hPa | 0 mm | - | 146 W/m² | - |
| 1777410639 | 12.22° C | 71% | 1024.8 hPa | 0 mm | - | 121 W/m² | - |
| 1777410333 | 12.78° C | 70% | 1024.7 hPa | 0 mm | - | 117 W/m² | - |
* Rain latest hour (hover to see other rain measurements)
** Current wind speed in m/s (hover to see current wind gust speed)